Location: M.A.R.S.Observatory
(35.4031°N, 81.5481°W)
Time: 04:44:10
(UTC-04:00)

SL-8 R/B - Visible Passes

Search period start: 25 April 2015 00:00
Search period end: 05 May 2015 00:00
Orbit: 658 x 669 km, 48.4° (Epoch: 24 April)

Date Brightness Start Highest point End Pass type
(mag) Time Alt. Az. Time Alt. Az. Time Alt. Az.
25 Apr 5.8 03:30:52 22° N 03:30:52 22° N 03:34:00 10° NE visible
25 Apr 6.2 05:10:59 10° NW 05:14:06 17° N 05:17:13 10° NE visible
26 Apr 6.6 02:22:33 13° NE 02:22:33 13° NE 02:23:05 10° NE visible
26 Apr 6.0 04:00:32 15° NNW 04:02:19 17° N 04:05:30 10° NE visible
26 Apr 6.0 05:42:38 10° NW 05:46:14 21° NNE 05:49:52 10° ENE visible
27 Apr 6.2 02:52:12 19° NNE 02:52:12 19° NNE 02:54:19 10° NE visible
27 Apr 6.2 04:31:22 10° NW 04:34:29 17° N 04:37:38 10° NE visible
28 Apr 6.1 03:21:51 17° NNW 03:22:42 17° N 03:25:51 10° NE visible
28 Apr 6.0 05:02:57 10° NW 05:06:36 21° NNE 05:10:18 10° ENE visible
29 Apr 6.5 02:13:31 14° NNE 02:13:31 14° NNE 02:14:37 10° NE visible
29 Apr 6.3 03:51:43 10° NW 03:54:52 17° N 03:58:02 10° NE visible
29 Apr 5.4 05:34:12 10° NW 05:38:33 34° NNE 05:42:55 10° E visible
30 Apr 6.2 02:43:10 17° N 02:43:10 17° N 02:46:12 10° NE visible
30 Apr 6.0 04:23:15 10° NW 04:26:58 22° NNE 04:30:44 10° ENE visible
30 Apr 4.1 06:05:25 10° NW 06:10:12 69° NE 06:14:58 10° ESE visible
01 May 6.8 01:34:51 10° NE 01:34:51 10° NE 01:34:55 10° NE visible
01 May 6.3 03:12:50 13° NNW 03:15:14 17° N 03:18:27 10° NE visible
01 May 5.2 04:54:28 10° NW 04:58:53 36° NNE 05:03:18 10° E visible
02 May 6.4 02:04:35 16° NNE 02:04:35 16° NNE 02:06:32 10° NE visible
02 May 5.9 03:43:33 10° NW 03:47:20 23° NNE 03:51:09 10° ENE visible
02 May 3.9 05:25:43 10° NW 05:30:31 75° NE 05:35:18 10° ESE visible
02 May 4.6 21:22:06 10° S 21:25:59 25° SE 21:27:24 22° ESE visible
02 May 5.4 23:03:38 10° WSW 23:05:41 25° WSW 23:05:41 25° WSW visible
03 May 6.3 02:34:27 16° N 02:35:36 18° N 02:38:51 10° NE visible
03 May 5.1 04:14:46 10° NW 04:19:13 38° NNE 04:23:41 10° E visible
03 May 4.0 05:57:17 10° WNW 06:01:51 44° SW 06:06:23 10° SSE visible
03 May 3.5 21:52:27 10° SW 21:57:11 67° SE 22:01:43 11° ENE visible
03 May 5.5 23:35:52 10° W 23:40:00 29° NNW 23:40:00 29° NNW visible
04 May 6.7 01:26:41 11° NE 01:26:41 11° NE 01:26:53 10° NE visible
04 May 5.9 03:04:43 14° NNW 03:07:41 24° NNE 03:11:33 10° ENE visible
04 May 3.7 04:46:01 10° NW 04:50:49 81° NE 04:55:36 10° SE visible
04 May 4.6 20:42:13 10° S 20:46:15 28° SE 20:50:20 10° ENE visible
04 May 4.4 22:23:58 10° WSW 22:28:38 52° NNW 22:33:19 10° NE visible
